User: anonymous   Login
Location: Unspecified
(0.0000°N, 0.0000°E)
Time: 13:26:56
(UTC+00:00)
Language:

PLEIADES HR1 - Orbit

View from above orbital plane
View from above orbital plane
View from above satellite
View from above satellite

Ground track
Ground track

The orbit data is extracted from the following two-line orbital elements,

1 38012U 11076F   15145.13760235  .00000391  00000-0  93990-4 0  9999
2 38012 098.1942 220.1741 0001570 092.7220 267.4162 14.58563954182943
Epoch (UTC): 25 May 2015 03:18:08
Eccentricity: 0.0001570
inclination: 98.1942°
perigee height: 697 km
apogee height: 699 km
right ascension of ascending node: 220.1741°
argument of perigee: 92.7220°
revolutions per day: 14.58563954
mean anomaly at epoch: 267.4162°
orbit number at epoch: 18294

The dashed part of the orbit path shows where the satellite is in the earth's shadow,  

DLR